Volver al catálogo

STARLINK-36037

ActivoComunicacionesVLEO
NORAD 66613·PAYLOAD·🇺🇸 United States

Lanzado Nov 22, 2025 desde Cape Canaveral Space Force Station

Loading…

Próximos Pases (próximas 24 horas)

TLE

ActualizadoSource: CelesTrak SupGP

Época: Sep 15, 2026, 03:30 UTC

1 66613C 25270AB  26258.14631944 -.00031794  00000+0 -11513-2 0  2589
2 66613  43.0009  66.2711 0001600 269.6552 330.2145 15.27602719    14

Sigue STARLINK-36037 en tiempo real con AllMySat

Download on the App Store